FW1937 Weather Reports


Display with metric or nautical units.
time (UTC)temp
F
wind
direction
speed
MPH
gust
MPH
rain 1hr
in
rain 24hr
in
rain mn
in
humidity
%
barometer
mb
20260507065412 49 213 2.0 4.0 0.00 0.11 0.01 69 1007.4
20260507064913 49 238 2.0 4.0 0.00 0.11 0.01 69 1007.4
20260507064413 49 240 1.0 4.0 0.00 0.11 0.01 69 1007.4
20260507063913 48 212 0.0 0.0 0.00 0.11 0.01 69 1007.4
20260507063412 48 213 0.0 3.0 0.01 0.11 0.01 69 1007.5
20260507062912 47 223 1.0 3.0 0.01 0.11 0.01 69 1007.5
20260507062412 47 223 2.0 3.0 0.01 0.11 0.01 69 1007.4
20260507062131 47 224 2.0 3.0 0.01 0.11 0.01 69 1007.4
20260507061413 47 229 2.0 3.0 0.01 0.11 0.01 69 1007.4
20260507060912 46 240 2.0 4.0 0.01 0.11 0.01 69 1007.6
20260507060413 46 229 2.0 4.0 0.01 0.11 0.01 69 1007.6
20260507055912 46 228 1.0 3.0 0.01 0.11 0.01 69 1007.6
20260507055413 45 226 0.0 3.0 0.01 0.11 0.01 69 1007.6
20260507054912 45 217 0.0 3.0 0.01 0.11 0.01 69 1007.6
20260507054413 45 219 0.0 2.0 0.01 0.11 0.01 69 1007.6
20260507054133 45 217 0.0 0.0 0.01 0.11 0.01 69 1007.6
20260507053412 45 217 0.0 0.0 0.00 0.10 0.00 69 1007.6
20260507052912 45 217 0.0 0.0 0.00 0.10 0.00 69 1007.4
20260507052413 45 217 0.0 0.0 0.00 0.10 0.00 69 1007.5
20260507051913 45 217 0.0 2.0 0.00 0.10 0.00 69 1007.5
20260507051413 45 217 0.0 2.0 0.00 0.11 0.00 69 1007.5
20260507050914 45 217 1.0 4.0 0.00 0.12 0.00 69 1007.5
20260507050638 45 217 2.0 4.0 0.00 0.12 0.00 69 1007.5
20260507045912 45 250 1.0 3.0 0.00 0.13 0.00 69 1007.5
20260507045633 45 254 1.0 3.0 0.00 0.14 0.00 69 1007.5
20260507044413 45 228 0.0 0.0 0.00 0.16 0.00 68 1007.3
20260507043912 45 228 0.0 0.0 0.00 0.17 0.00 68 1007.4
20260507043412 46 228 0.0 0.0 0.00 0.20 0.00 69 1007.4
20260507043130 46 228 0.0 0.0 0.00 0.21 0.00 69 1007.4
20260507042413 46 228 0.0 0.0 0.00 0.23 0.00 69 1007.4
20260507041912 46 228 0.0 3.0 0.00 0.23 0.00 69 1007.5
20260507041411 46 228 0.0 3.0 0.00 0.24 0.00 69 1007.4
20260507040910 46 228 1.0 2.0 0.00 0.24 0.00 69 1007.5
20260507040404 46 228 1.0 3.0 0.00 0.24 0.00 69 1007.5
20260507035404 46 227 1.0 2.0 0.00 0.24 0.00 69 1007.6
20260507034904 46 227 0.0 2.0 0.00 0.24 0.00 69 1007.7
20260507033903 46 227 1.0 3.0 0.00 0.24 0.00 69 1007.7
20260507033404 46 227 1.0 3.0 0.00 0.24 0.00 69 1007.5
20260507032903 46 228 0.0 1.0 0.00 0.24 0.00 69 1007.6
20260507032404 46 228 1.0 3.0 0.00 0.24 0.00 69 1007.7
20260507031903 46 228 1.0 3.0 0.00 0.24 0.00 69 1007.6
20260507031625 46 228 2.0 3.0 0.00 0.24 0.00 69 1007.6
20260507030917 46 229 1.0 4.0 0.00 0.24 0.00 69 1007.7
20260507030404 46 232 1.0 4.0 0.00 0.24 0.00 69 1007.7
20260507025904 46 231 1.0 3.0 0.00 0.24 0.00 68 1007.7
20260507025403 46 232 1.0 3.0 0.00 0.24 0.00 68 1007.7
20260507024903 46 241 0.0 3.0 0.00 0.24 0.00 69 1007.6
20260507024619 47 243 0.0 0.0 0.00 0.24 0.00 69 1007.5
20260507024127 47 243 0.0 0.0 0.00 0.24 0.00 69 1007.6
20260507023358 47 242 0.0 0.0 0.00 0.24 0.00 69 1007.7
20260507023118 47 242 0.0 0.0 0.00 0.24 0.00 69 1007.8
20260507022347 47 242 0.0 0.0 0.00 0.24 0.00 69 1007.7
20260507022108 47 242 0.0 0.0 0.00 0.24 0.00 68 1007.8
20260507021606 47 242 0.0 1.0 0.00 0.24 0.00 69 1007.8
20260507020844 47 242 0.0 1.0 0.00 0.24 0.00 69 1007.8
20260507020343 47 242 0.0 2.0 0.00 0.24 0.00 69 1007.7
20260507015843 47 243 0.0 2.0 0.00 0.24 0.00 69 1007.8
20260507015343 47 243 0.0 1.0 0.00 0.24 0.00 69 1007.8
20260507014844 47 243 1.0 2.0 0.00 0.24 0.00 69 1007.8
20260507014344 47 243 1.0 3.0 0.00 0.24 0.00 69 1007.9
20260507013843 47 244 1.0 3.0 0.00 0.24 0.00 69 1008.0
20260507013343 48 244 1.0 2.0 0.00 0.24 0.00 69 1008.0
20260507013107 48 247 2.0 4.0 0.00 0.24 0.00 69 1007.9
20260507012343 47 249 1.0 4.0 0.00 0.24 0.00 69 1008.0
20260507011844 47 191 0.0 2.0 0.00 0.24 0.00 69 1008.1
20260507011342 47 190 1.0 3.0 0.00 0.24 0.00 69 1008.0
20260507011107 48 190 1.0 4.0 0.00 0.24 0.00 69 1008.0
20260507010352 48 190 1.0 4.0 0.00 0.24 0.00 69 1008.0
20260507005839 48 211 1.0 3.0 0.00 0.24 0.00 69 1008.0
20260507005340 48 211 0.0 3.0 0.00 0.24 0.00 69 1008.0
20260507004340 48 211 1.0 3.0 0.00 0.24 0.00 69 1008.2
20260507003853 48 206 1.0 3.0 0.00 0.24 0.00 69 1008.2
20260507003340 48 205 2.0 4.0 0.00 0.24 0.00 69 1008.3
20260507002839 48 205 2.0 4.0 0.00 0.24 0.00 69 1008.3
20260507002335 48 267 1.0 3.0 0.00 0.24 0.00 69 1008.3
20260507002102 48 213 0.0 0.0 0.00 0.24 0.00 69 1008.3
20260507001335 48 213 0.0 0.0 0.00 0.24 0.00 69 1008.4
20260507000835 48 213 0.0 0.0 0.00 0.24 0.00 69 1008.3
20260507000558 48 213 0.0 0.0 0.00 0.24 0.00 69 1008.5
20260507000056 49 213 0.0 0.0 0.00 0.24 0.00 69 1008.5
20260506235335 49 214 0.0 0.0 0.00 0.24 0.00 69 1008.5
20260506234843 49 214 0.0 2.0 0.00 0.24 0.00 69 1008.5
20260506234327 49 214 1.0 2.0 0.00 0.24 0.00 69 1008.5
20260506233827 49 212 1.0 3.0 0.00 0.24 0.00 69 1008.5
20260506233320 49 211 1.0 3.0 0.00 0.24 0.00 69 1008.7
20260506232822 49 211 0.0 1.0 0.00 0.24 0.00 69 1008.8
20260506232319 49 211 0.0 1.0 0.00 0.24 0.00 69 1008.7
20260506231823 49 211 1.0 2.0 0.00 0.24 0.00 69 1008.7
20260506231331 49 211 1.0 2.0 0.00 0.24 0.00 69 1008.8
20260506230823 49 211 1.0 2.0 0.00 0.24 0.00 69 1008.7
20260506230540 49 210 1.0 3.0 0.00 0.24 0.00 69 1008.7
20260506225822 49 210 1.0 3.0 0.00 0.24 0.00 69 1008.7
20260506225312 49 210 0.0 2.0 0.00 0.24 0.00 69 1008.7
20260506224816 50 210 1.0 2.0 0.00 0.24 0.00 69 1008.7
20260506224303 50 210 1.0 2.0 0.00 0.24 0.00 69 1008.8
20260506223806 50 210 1.0 2.0 0.00 0.24 0.00 69 1008.8
20260506223304 49 210 1.0 3.0 0.00 0.24 0.00 69 1008.8
20260506222806 49 209 1.0 3.0 0.00 0.24 0.00 69 1008.9
20260506222306 49 208 1.0 3.0 0.00 0.24 0.00 70 1008.9
20260506221806 49 207 1.0 3.0 0.00 0.24 0.00 70 1008.9
20260506221304 50 208 1.0 2.0 0.00 0.24 0.00 70 1008.8
20260506220806 50 208 1.0 2.0 0.00 0.24 0.00 70 1008.7
20260506220303 50 208 1.0 2.0 0.00 0.24 0.00 70 1008.8
20260506215806 50 208 0.0 2.0 0.00 0.24 0.24 70 1008.8
20260506215306 50 207 0.0 0.0 0.00 0.24 0.24 70 1008.8
20260506214807 50 207 0.0 2.0 0.00 0.24 0.24 70 1008.8
20260506214524 50 207 1.0 2.0 0.00 0.24 0.24 71 1008.9
20260506213808 50 207 1.0 2.0 0.00 0.24 0.24 71 1009.0
20260506213305 51 207 1.0 2.0 0.00 0.24 0.24 71 1009.0
20260506212806 51 207 1.0 2.0 0.00 0.24 0.24 71 1008.9
20260506212306 51 207 1.0 2.0 0.00 0.24 0.24 71 1008.9
20260506211807 51 207 1.0 3.0 0.00 0.24 0.24 71 1008.9
20260506211304 51 207 2.0 3.0 0.00 0.24 0.24 71 1009.0
20260506211030 51 207 2.0 4.0 0.00 0.24 0.24 71 1008.9
20260506210528 51 207 1.0 4.0 0.00 0.24 0.24 71 1009.0
20260506210031 52 242 1.0 3.0 0.00 0.24 0.24 71 1008.9
20260506205305 52 244 1.0 3.0 0.00 0.24 0.24 71 1008.8
20260506204806 52 244 2.0 3.0 0.00 0.24 0.24 71 1008.8
20260506204303 52 301 2.0 3.0 0.00 0.24 0.24 71 1008.9
20260506203806 52 308 1.0 3.0 0.00 0.24 0.24 71 1008.9
20260506203523 53 309 1.0 2.0 0.00 0.24 0.24 71 1008.9
20260506202806 53 309 1.0 3.0 0.00 0.24 0.24 71 1008.9
20260506202306 53 309 1.0 3.0 0.00 0.24 0.24 70 1008.9
20260506201819 53 309 1.0 3.0 0.00 0.24 0.24 70 1008.8
20260506201304 54 311 1.0 3.0 0.00 0.24 0.24 70 1008.8
20260506200806 54 311 1.0 2.0 0.00 0.24 0.24 70 1008.8
20260506200303 54 311 1.0 2.0 0.00 0.24 0.24 70 1008.8
20260506195808 55 311 1.0 2.0 0.00 0.24 0.24 69 1008.7
20260506195256 55 311 1.0 2.0 0.00 0.24 0.24 69 1015.1
20260506194755 55 311 1.0 2.0 0.00 0.24 0.24 69 1008.5
20260506194256 56 312 1.0 2.0 0.00 0.24 0.24 69 1008.4
20260506193758 56 312 0.0 2.0 0.00 0.24 0.24 69 1008.4
20260506193254 56 313 1.0 2.0 0.00 0.24 0.24 69 1008.4
20260506192751 57 313 1.0 3.0 0.00 0.24 0.24 68 1008.4
20260506192249 58 313 0.0 3.0 0.00 0.24 0.24 67 1008.4
20260506191750 58 314 1.0 3.0 0.00 0.24 0.24 67 1008.3
20260506191245 59 314 1.0 3.0 0.00 0.24 0.24 67 1008.4
20260506190741 59 315 0.0 0.0 0.00 0.24 0.24 67 1008.3
20260506185740 59 315 0.0 0.0 0.00 0.24 0.24 66 1008.2
20260506185241 60 315 0.0 0.0 0.00 0.24 0.24 66 1008.1
20260506184740 60 315 0.0 0.0 0.00 0.24 0.24 66 1008.1
20260506184240 60 315 0.0 0.0 0.00 0.24 0.24 66 1008.2
20260506183740 60 315 0.0 0.0 0.00 0.24 0.24 66 1008.2
20260506183241 60 315 0.0 1.0 0.00 0.24 0.24 65 1008.2
20260506182740 61 315 0.0 1.0 0.00 0.24 0.24 66 1008.2
20260506182234 61 315 0.0 1.0 0.00 0.24 0.24 66 1008.1
20260506181734 61 314 0.0 1.0 0.00 0.24 0.24 66 1008.1
20260506181235 61 315 0.0 0.0 0.00 0.24 0.24 66 1008.1
20260506180735 61 314 1.0 2.0 0.00 0.24 0.24 65 1014.4
20260506180455 61 314 1.0 3.0 0.00 0.24 0.24 65 1008.1
20260506175734 61 309 1.0 3.0 0.00 0.24 0.24 65 1008.1
20260506175234 61 319 0.0 3.0 0.00 0.24 0.24 64 1008.2
20260506174734 61 306 0.0 2.0 0.00 0.24 0.24 65 1008.1
20260506174227 61 303 0.0 2.0 0.00 0.24 0.24 65 1008.1
20260506173950 61 302 0.0 4.0 0.00 0.24 0.24 65 1008.1
20260506173223 61 302 1.0 4.0 0.00 0.24 0.24 65 1008.1
20260506172721 61 234 1.0 2.0 0.00 0.24 0.24 66 1008.1
20260506172222 61 290 1.0 4.0 0.00 0.24 0.24 66 1008.1
20260506171722 60 291 1.0 4.0 0.00 0.24 0.24 66 1014.6
20260506171217 60 255 1.0 4.0 0.00 0.24 0.24 66 1008.1
20260506170718 60 237 1.0 4.0 0.00 0.24 0.24 66 1008.1
20260506170217 60 244 2.0 6.0 0.00 0.24 0.24 66 1008.1
20260506165718 60 250 1.0 6.0 0.00 0.24 0.24 66 1014.7
20260506165217 59 332 1.0 4.0 0.00 0.24 0.24 66 1008.2
20260506164718 59 233 2.0 8.0 0.00 0.24 0.24 66 1008.2
20260506164218 59 250 2.0 8.0 0.00 0.24 0.24 66 1008.2
20260506163713 59 210 3.0 8.0 0.00 0.24 0.24 66 1014.7
20260506163438 59 269 3.0 8.0 0.00 0.24 0.24 66 1008.2
20260506162713 59 235 3.0 10.0 0.00 0.24 0.24 66 1008.2
20260506162220 59 243 3.0 10.0 0.00 0.24 0.24 66 1008.3
20260506161718 59 298 4.0 11.0 0.00 0.24 0.24 66 1008.2
20260506161434 59 273 5.0 11.0 0.00 0.24 0.24 65 1008.2
20260506160713 60 281 3.0 8.0 0.00 0.24 0.24 65 1008.2
20260506160226 60 302 3.0 7.0 0.00 0.24 0.24 65 1008.1
20260506155713 60 300 4.0 8.0 0.00 0.24 0.24 65 1008.2
20260506155213 59 261 4.0 8.0 0.00 0.24 0.24 64 1008.2
20260506154714 60 258 4.0 11.0 0.00 0.24 0.24 65 1008.3
20260506154214 60 303 4.0 11.0 0.00 0.24 0.24 65 1008.3
20260506153713 59 227 4.0 9.0 0.00 0.25 0.24 65 1008.3
20260506153213 59 321 3.0 9.0 0.00 0.27 0.24 66 1008.3
20260506152713 59 259 3.0 8.0 0.00 0.27 0.24 67 1008.3
20260506152213 59 277 3.0 8.0 0.00 0.27 0.24 67 1008.4
20260506151713 59 252 3.0 7.0 0.00 0.27 0.24 67 1008.4
20260506151214 59 258 2.0 9.0 0.00 0.27 0.24 67 1008.4
20260506150713 59 286 3.0 9.0 0.00 0.27 0.24 67 1008.4
20260506150209 58 271 4.0 8.0 0.00 0.27 0.24 67 1008.5
20260506145709 58 300 3.0 9.0 0.00 0.27 0.24 67 1008.5
20260506145436 58 282 4.0 9.0 0.00 0.27 0.24 66 1008.5
20260506144709 58 284 3.0 8.0 0.00 0.27 0.24 66 1008.5
20260506144428 58 309 2.0 8.0 0.00 0.27 0.24 67 1008.5
20260506143709 58 266 2.0 8.0 0.00 0.27 0.24 67 1008.6
20260506143436 58 312 2.0 5.0 0.00 0.28 0.24 68 1008.6
20260506142709 58 241 2.0 4.0 0.00 0.28 0.24 68 1008.7
20260506141709 58 269 2.0 7.0 0.00 0.28 0.24 68 1008.7
20260506141210 57 292 3.0 7.0 0.00 0.28 0.24 68 1008.8
20260506140934 57 227 3.0 7.0 0.01 0.28 0.24 68 1008.7
20260506140210 57 259 3.0 9.0 0.01 0.29 0.24 68 1008.8
20260506135709 56 271 4.0 9.0 0.02 0.30 0.24 68 1008.9
20260506135210 56 242 5.0 11.0 0.02 0.32 0.24 68 1008.9
20260506134709 56 268 4.0 11.0 0.02 0.34 0.24 68 1008.8
20260506134209 56 250 4.0 11.0 0.02 0.34 0.24 68 1008.9
20260506133709 56 279 5.0 11.0 0.02 0.35 0.24 68 1008.9
20260506133209 56 254 5.0 11.0 0.02 0.35 0.24 68 1008.9
20260506132710 56 236 6.0 13.0 0.02 0.35 0.24 69 1008.8
20260506132209 56 304 6.0 13.0 0.02 0.35 0.24 69 1008.8
20260506131709 56 292 6.0 11.0 0.03 0.36 0.24 69 1008.9
20260506131209 56 271 6.0 16.0 0.04 0.36 0.24 69 1008.8
20260506130709 56 267 6.0 16.0 0.04 0.36 0.23 69 1008.7
20260506130209 56 292 6.0 16.0 0.04 0.38 0.23 69 1008.7
20260506125929 56 265 6.0 16.0 0.03 0.38 0.22 69 1008.7
20260506125210 56 262 8.0 16.0 0.03 0.39 0.22 70 1008.6
20260506124709 56 201 8.0 16.0 0.03 0.39 0.22 70 1008.6
20260506124209 56 260 6.0 14.0 0.03 0.39 0.22 70 1008.7
20260506123710 56 287 5.0 13.0 0.03 0.40 0.22 70 1008.6
20260506123210 56 256 5.0 12.0 0.02 0.40 0.21 70 1008.6
20260506122709 56 271 7.0 14.0 0.02 0.40 0.21 70 1008.5
20260506122209 56 290 7.0 14.0 0.02 0.41 0.21 69 1008.5
20260506121210 57 236 7.0 15.0 0.01 0.42 0.20 68 1008.6
20260506120709 57 247 8.0 15.0 0.00 0.41 0.19 68 1008.5
20260506120210 57 265 8.0 16.0 0.00 0.41 0.19 68 1008.6
20260506115709 57 241 7.0 16.0 0.00 0.41 0.19 67 1008.5
20260506115210 57 264 6.0 12.0 0.00 0.41 0.19 67 1008.6
20260506114709 58 234 5.0 11.0 0.00 0.41 0.19 67 1008.4
20260506114209 57 280 6.0 13.0 0.00 0.41 0.19 68 1008.5
20260506113709 57 264 6.0 13.0 0.00 0.41 0.19 67 1008.4
20260506113209 57 248 6.0 15.0 0.00 0.41 0.19 67 1008.5
20260506112709 58 350 7.0 16.0 0.00 0.41 0.19 67 1008.6
20260506112426 58 250 7.0 16.0 0.00 0.41 0.19 66 1008.5
20260506111659 58 229 6.0 20.0 0.00 0.41 0.19 66 1008.4
20260506111159 58 267 7.0 20.0 0.00 0.41 0.19 66 1008.4
20260506110659 58 200 6.0 13.0 0.00 0.41 0.19 65 1008.2
20260506110200 58 271 5.0 13.0 0.00 0.41 0.19 65 1008.1
20260506105700 58 250 5.0 13.0 0.00 0.41 0.19 65 1008.2
20260506105200 58 239 6.0 14.0 0.00 0.41 0.19 65 1008.1
20260506104659 58 267 7.0 14.0 0.00 0.41 0.19 65 1008.1
20260506104159 58 238 6.0 13.0 0.00 0.41 0.19 65 1008.0
20260506103659 58 264 5.0 12.0 0.00 0.41 0.19 66 1008.0
20260506103159 58 290 5.0 12.0 0.00 0.41 0.19 66 1008.0
20260506102659 58 230 4.0 11.0 0.00 0.41 0.19 66 1008.1
20260506102200 58 252 3.0 9.0 0.00 0.41 0.19 67 1008.1
20260506101659 57 173 3.0 8.0 0.00 0.41 0.19 67 1008.1
20260506101159 57 263 4.0 8.0 0.00 0.41 0.19 67 1008.2
20260506100700 56 194 5.0 11.0 0.01 0.41 0.19 67 1008.1
20260506100212 56 192 5.0 11.0 0.01 0.41 0.19 67 1008.2
20260506095700 56 155 6.0 13.0 0.02 0.41 0.19 67 1008.1
20260506095200 56 214 6.0 13.0 0.02 0.41 0.19 67 1008.0
20260506094916 56 208 6.0 11.0 0.02 0.41 0.19 67 1008.1
20260506094151 55 219 6.0 10.0 0.02 0.41 0.19 67 1008.2
20260506093643 55 174 6.0 10.0 0.02 0.41 0.19 67 1008.2
20260506093143 55 246 6.0 10.0 0.02 0.41 0.19 67 1008.2
20260506092407 55 214 4.0 8.0 0.02 0.41 0.19 67 1008.1
20260506091143 55 228 5.0 10.0 0.02 0.41 0.19 67 1008.1
20260506090643 55 183 4.0 13.0 0.02 0.40 0.18 67 1008.0
20260506090144 55 220 3.0 13.0 0.02 0.39 0.17 67 1008.0
20260506085643 55 188 3.0 7.0 0.03 0.39 0.17 67 1008.0
20260506085143 55 192 3.0 7.0 0.04 0.39 0.17 67 1007.9
20260506084643 55 227 4.0 7.0 0.04 0.39 0.17 67 1007.8
20260506084143 55 219 4.0 7.0 0.04 0.39 0.17 68 1007.8
20260506083643 54 235 4.0 9.0 0.04 0.39 0.17 68 1007.8
20260506083143 54 194 4.0 9.0 0.03 0.39 0.17 67 1007.8
20260506082643 54 196 4.0 12.0 0.03 0.39 0.17 68 1007.8
20260506081643 54 259 3.0 10.0 0.03 0.39 0.17 68 1007.8
20260506081143 54 224 3.0 7.0 0.03 0.39 0.17 68 1007.8
20260506080904 54 215 2.0 7.0 0.03 0.39 0.17 68 1007.7
20260506080146 54 221 3.0 7.0 0.02 0.39 0.16 68 1007.7
20260506073143 53 175 3.0 5.0 0.00 0.39 0.13 68 1007.5
20260506072644 53 192 2.0 5.0 0.00 0.39 0.13 68 1007.4
20260506071643 53 175 3.0 4.0 0.00 0.39 0.13 68 1007.5
20260506071407 53 173 3.0 5.0 0.00 0.40 0.13 68 1007.4
20260506070644 53 169 4.0 5.0 0.00 0.40 0.13 68 1007.3
20260506070143 53 168 4.0 6.0 0.00 0.42 0.13 68 1007.3